Preview of NWS' New Version of Forecast
This preview is not operational and should not be used for support decisions.

Regional Weather Roundup (RWR)

Issued by Gray - Portland, ME (GYX)

                            
000
ASUS41 KGYX 170710
RWRGYX
WEATHER ROUNDUP FOR MAINE AND NEW HAMPSHIRE
NATIONAL WEATHER SERVICE GRAY ME
200 AM EST THU JAN 17 2019

MEZ002-005-006-010-012-015-018-020-021-024-026-027-029-170800-
MAINE
  
CITY           SKY/WX    TMP DP  RH WIND       PRES   REMARKS
PORTLAND       FAIR      17   0  47 NW13      30.21R WCI   4          
SANFORD        FAIR      15   0  51 NW10G17   30.22R WCI   2          
BAR HARBOR     FAIR      13  -1  54 NW12G18   30.14R WCI  -1          
WISCASSET      FAIR      14  -2  49 VRB5G18   30.21R                  
ROCKLAND       FAIR      15   2  56 NW10      30.17R WCI   2          
FRYEBURG       FAIR      10  -4  53 W6        30.19R                  
LEWISTONAUBURN FAIR      12   0  58 NW8G20    30.20R                  
AUGUSTA        FAIR      10  -4  53 NW10      30.18R WCI  -4          
WATERVILLE     FAIR       9  -2  61 MISG      30.15R                  
BANGOR         FAIR      10  -5  50 NW17G25   30.17R WCI  -8          
GREENVILLE       N/A     -2 -12  62 NW17G28   30.02R WCI -23          
MILLINOCKET    FAIR       3  -8  60 W17G25    30.11R WCI -17          
HOULTON        FAIR       4  -5  66 W10       30.04R WCI -11          
PRESQUE ISLE   FAIR       3  -5  69 W13G22    30.04R WCI -14          
FRENCHVILLE    LGT SNOW  -2 -11  65 W22G31    29.97R WCI -26          
CARIBOU        FAIR       2  -8  63 NW12      30.00R WCI -15          
$$

NHZ002-005-008-009-011-012-014-170800-
NEW HAMPSHIRE
  
CITY           SKY/WX    TMP DP  RH WIND       PRES   REMARKS
PORTSMOUTH     PTCLDY    18  -1  41 W9        30.21R                  
ROCHESTER      FAIR      16   0  49 W9        30.21R                  
NASHUA         FAIR      21   6  52 NW14G20   30.24R WCI   8          
MANCHESTER     FAIR      20  -2  38 NW13G20   30.23R WCI   7          
CONCORD        FAIR      13  -1  54 NW10      30.25R WCI   0          
LACONIA        FAIR      10  -1  61 W6        30.22R                  
PLYMOUTH       FAIR       8  -3  62 CALM      30.24R                  
BERLIN         FAIR       4  -4  69 VRB7      30.14R                  
WHITEFIELD     FAIR       3  -3  76 CALM      30.20R                  
JAFFREY        FAIR      17   2  51 NW5       30.18R                  
KEENE          FAIR      15   2  56 N10       30.25R WCI   2          
LEBANON        FAIR      11  -3  53 NW6       30.25R                  
MT WASHINGTON  MOCLDY   -17 -24  70 NW68        N/A  WCI -59          
$$

VTZ005-007-008-170800-
VERMONT
  
CITY           SKY/WX    TMP DP  RH WIND       PRES   REMARKS
ST JOHNSBURY     N/A      4  -7  60 MISG      30.24R                  
MONTPELIER     FAIR       2  -6  69 NW8       30.25R                  
BURLINGTON     FAIR       5  -5  63 N7        30.33R                  
$$

MAZ007-012-024-CTZ003-RIZ002-NYZ038-NYZ072-170800-
SOUTHERN NEW ENGLAND AND NY
  
CITY           SKY/WX    TMP DP  RH WIND       PRES   REMARKS
BOSTON         FAIR      29   4  34 NW13G23   30.22R WCI  19          
WORCESTER      FAIR      21   6  52 NW13      30.17R WCI   9          
NANTUCKET      FAIR      32  17  54 NW18      30.17R                  
PROVIDENCE     FAIR      28  13  53 NW8       30.21R                  
HARTFORD       FAIR      25   9  50 NW17G23   30.26R WCI  12          
ALBANY         FAIR      18  -3  39 NW14      30.32R WCI   4          
NEW YORK CITY  MOCLDY    31  12  45 NW12      30.29R                  
$$

ANZ081-ANZ082-ANZ150-NHZ014-MEZ023>029-170800-
COASTAL MARINE OBSERVATIONS
  
STATION/POSITION TIME  TEMP    WIND        PRES    WAVE
                       AIR SEA DIR/SP/G            HT/PER
                 (UTC) (F)     (DEG/KT/KT) (MB)    (FT/S)
MOUNT DESERT ROC 0700   21     290/ 34/ 38 1019.0R
MATINICUS ROCK   0600   23     320/ 28/ 31 1018.0R
ISLE OF SHOALS   0600   24     310/ 26/ 30 1021.1R
JEFFREYS LEDGE   0638      43                N/A     7/ 6
CASHES LEDGE BUO 0650   27 40              1020.0R   8/ 6
$$

.............KEY..............
   WCI - WIND CHILL
   TC  - TEMPERATURE IN CELSIUS
   VSB - VISIBILITY IN MILES
   HX  - HEAT INDEX
   FAIR- INDICATES FEW OR NO CLOUDS BELOW 12,000 FT, WITH NO 
         SIGNIFICANT WEATHER AND/OR OBSTRUCTIONS TO VISIBILITY.